2019 VX2
ephemeris date magn radius delta ra dec elong phase
Today20 Oct 202531.31.066 AU1.956 AU12h28m-02°17'19.1°17.8°
2019 VX2 - 2025-10-20
astro.vanbuitenen.nl


 
-1 year
-1 month
-1 day
Now
+1 day
+1 month
+1 year

The interactive orbit chart above shows the body's path through the solar system and its position at the given date. Green and blue lines are shown perpendicular to the ecliptic plane: Green if the path is above the ecliptic plane, blue if it is below. (Left-click and drag to rotate the view; Right-click and drag to move the view; Use scroll wheel to zoom in our out.)

The orbital elements of 2019 VX2 are:

            e (Eccentricity)                : 0.2733416
            a (Semimajor axis)              : 1.2597320
            i (Inclination)                 : 1.67022
            Ω (Longitude of ascending node) : 39.77537
            ω (Argument of perihelion)      : 59.69781
            M (Mean anomaly)                : 285.75843
            Epoch                           : 2025 May 05

            L (Longitude of perihelion)     : 99.46257
            B (Latitude of perihelion)      : 1.44198
            P (Orbital period in years)     : 1.41            
        

The light curve chart below shows the estimated development of the minor planet's magnitude.


The all-sky chart below shows the path of the minor planet over the same period as the light curve. The current position is marked yellow.





The following chart shows the path of the minor planet in the next few days. The field of view is optimized for (~10x50) binoculars and finderscopes.




Ephemerides:
Date       Time       RA (2000)    DEC (2000)    delta   radius  elong  phase   PA    magn
2025-10-20 00:00 UT   12 28 12.4   -02 17 03     1.956    1.066   19.1   17.8   295   31.3 
2025-10-20 07:07 UT   12 29 12.6   -02 23 40     1.957    1.068   19.2   17.8   295   31.3 
2025-10-21 00:00 UT   12 31 35.3   -02 39 19     1.959    1.070   19.2   17.8   295   31.3 
2025-10-22 00:00 UT   12 34 57.5   -03 01 29     1.963    1.075   19.3   17.8   295   31.3 
2025-10-23 00:00 UT   12 38 19.0   -03 23 30     1.966    1.079   19.4   17.8   295   31.4 
2025-10-24 00:00 UT   12 41 39.9   -03 45 24     1.969    1.083   19.4   17.8   295   31.4 
2025-10-25 00:00 UT   12 45 00.2   -04 07 09     1.972    1.087   19.5   17.8   295   31.4 
2025-10-26 00:00 UT   12 48 19.8   -04 28 46     1.975    1.091   19.6   17.8   295   31.4 
2025-10-27 00:00 UT   12 51 38.9   -04 50 15     1.978    1.096   19.7   17.8   295   31.4 
2025-10-28 00:00 UT   12 54 57.3   -05 11 34     1.982    1.100   19.8   17.8   294   31.4 
2025-10-29 00:00 UT   12 58 15.2   -05 32 45     1.985    1.104   19.9   17.9   294   31.4 


    Terminology:
            
    delta:  distance between minor planet and earth in AU
    radius: distance between minor planet and sun in AU
    magn:   magnitude (brightness) estimate    
    ra:     right ascension in hours (24h = 360deg)
    dec:    declination in degrees
    elong:  elongation in degrees (angle sun-earth-minor planet)    
    phase:  phase angle in degrees (angle sun-minor planet-earth)        
    AU:     Astronomical Unit (mean distance between earth and sun: 149597870.7 km
    

Orbital elements provided by the MPC (Minor Planet Center).
Calculations by a modified version of AAPlus, a C# implementation of the AA+ project by PJ Naughter from the algorithms presented in the book "Astronomical Algorithms" by Jean Meeus.
NGC2000 dso catalog and star labels from VizieR as provided by the Strasbourg astronomical Data Center.
Tycho2 catalog from the ESO archive.